[[{"header":{"parameterUnit":"m.s-1","parameterCategory":2,"la1":30.2991,"la2":30.254,"lo1":-89.0895,"lo2":-89.0444,"dy":0.0017,"dx":0.0017,"nx":28,"ny":28,"refTime":"2025-03-17T09:00:00:Z","depth":"0","parameterNumber":2,"parameterNumberName":"U-component_of_CURRENTS"},"data":[0,0,0,0,0,0,0,0,0,0,0,0,0,0,0,0,0,0,0,0,0,0,0,0,0,0,0,0,0,0,0,0,0,0,0,0,0,0,0,0,0,0,0,0,0,0,0,0,0,0,0,0,0,0,0,0,0,0,0.27,0.2701,0,0.2796,0.2796,0.2797,0.2759,0.2758,0.2756,0.2755,0.271,0.271,0.2711,0,0,0,0,0,0,0,0,0,0,0,0,0,0.2453,0.2457,0.27,0.2702,0.2703,0.2796,0.2796,0.2797,0.276,0.2758,0.2756,0.2754,0.271,0.271,0.2711,0,0,0,0,0,0,0,0,0,0,0,0,0,0.2549,0.2459,0.2699,0.2701,0.2703,0.2796,0.2796,0.2797,0.276,0.2758,0.2755,0.2753,0.271,0.271,0.2711,0.2761,0,0,0.2712,0.2712,0,0,0,0,0,0,0,0,0.2544,0.2557,0.2699,0.2701,0.2703,0.2769,0.2694,0.2781,0.2761,0.2731,0.2755,0.2752,0.2723,0.2723,0.2738,0.2759,0.2757,0.2712,0.2712,0.2712,0.2713,0,0,0,0,0,0,0,0.2537,0.2553,0.273,0.2701,0.2704,0.2687,0.2698,0.271,0.2731,0.2733,0.2733,0.2755,0.2722,0.2738,0.2736,0.2756,0.2712,0.2712,0.2713,0.2713,0.2775,0.2777,0,0,0,0,0,0,0.2545,0.2548,0.2728,0.2734,0.2624,0.2694,0.2706,0.2745,0.2734,0.2733,0.2757,0.2753,0.2738,0.2736,0.2734,0.2768,0.2712,0.2713,0.2713,0.2774,0.2776,0.2777,0,0,0,0,0,0,0.254,0.2561,0.2724,0.2647,0.2667,0.2702,0.2746,0.2748,0.2769,0.2755,0.2749,0.2776,0.2736,0.2734,0.2747,0.2766,0.2713,0.2713,0.2772,0.2775,0.2777,0.2851,0,0,0,0,0,0,0.2532,0.2559,0.259,0.2649,0.2672,0.28,0.2749,0.2752,0.279,0.2785,0.277,0.2763,0.2734,0.2747,0.2747,0.2766,0.2714,0.2771,0.2773,0.2776,0.2847,0.2855,0.2863,0,0,0,0,0,0.2523,0.2602,0.2592,0.2613,0.2715,0.2803,0.2814,0.2824,0.2793,0.2826,0.2797,0.2764,0.2763,0.2749,0.2749,0.2768,0.2769,0.2773,0.2776,0.2843,0.2854,0.2862,0,0,0,0,0,0,0.2537,0.2608,0.2597,0.2698,0.2747,0.28,0.2843,0.284,0.2848,0.2831,0.2792,0.2786,0.2802,0.2784,0.2769,0.2794,0.2758,0.2761,0.2809,0.2818,0.2826,0.2811,0.2714,0,0,0,0,0,0.255,0.2609,0.267,0.2749,0.2775,0.2803,0.2838,0.2845,0.2865,0.2866,0.2852,0.283,0.282,0.2817,0.2812,0.2839,0.286,0.2848,0.2856,0.2863,0.2852,0.2895,0.2906,0.2788,0.2788,0.2788,0,0,0.2583,0.2626,0.2663,0.2752,0.2784,0.2831,0.2818,0.2887,0.2902,0.286,0.2876,0.2865,0.2835,0.2852,0.2857,0.2837,0.2925,0.2867,0.2873,0.2857,0.29,0.2911,0.2921,0.279,0.2789,0.2789,0,0,0.2672,0.2709,0.2775,0.2813,0.2872,0.288,0.2902,0.2953,0.295,0.2982,0.2937,0.2936,0.2943,0.2915,0.29,0.2954,0.2967,0.2961,0.2987,0.3031,0.3041,0.3049,0.3165,0.3183,0.2962,0.2962,0.2962,0,0.2705,0.2777,0.2813,0.2872,0.2891,0.2898,0.2945,0.2963,0.3004,0.2996,0.2993,0.2986,0.2964,0.2956,0.2967,0.297,0.3026,0.2953,0.3042,0.305,0.3058,0.3173,0.3192,0.2966,0.2966,0.2965,0.2965,0,0.2822,0.2866,0.2915,0.2958,0.2991,0.3043,0.3054,0.3068,0.3055,0.306,0.307,0.3059,0.3047,0.3048,0.302,0.3057,0.3096,0.3051,0.3018,0.3074,0.3193,0.3212,0.2972,0.297,0.2969,0.2968,0,0,0.2921,0.2979,0.2988,0.2981,0.3024,0.3056,0.3075,0.3085,0.309,0.3113,0.313,0.311,0.3111,0.3094,0.3077,0.3104,0.3228,0.3106,0.3107,0.3224,0.34,0.3437,0.3462,0.3209,0.321,0.3212,0.3489,0,0.2983,0.3062,0.3077,0.3112,0.3134,0.3117,0.3138,0.3143,0.3143,0.3171,0.3148,0.3177,0.3128,0.3149,0.3163,0.3204,0.3269,0.3161,0.3323,0.3329,0.3355,0.3479,0.3352,0.3586,0.3507,0.351,0.3512,0,0.3065,0.3094,0.3142,0.3135,0.3147,0.3173,0.3156,0.3185,0.3208,0.3219,0.3228,0.3239,0.3276,0.3238,0.3344,0.3288,0.3351,0.3386,0.3397,0.3404,0.3398,0.3501,0.3622,0.3532,0.354,0.3538,0.3536,0,0.3059,0.3116,0.3127,0.3136,0.3164,0.3166,0.3179,0.3201,0.3205,0.3271,0.3317,0.3341,0.3407,0.3444,0.3521,0.3452,0.3675,0.3586,0.369,0.3698,0.3602,0.3596,0.3641,0.3678,0.3678,0.3677,0.3676,0,0.3085,0.3088,0.3127,0.3138,0.3148,0.318,0.3193,0.3219,0.3265,0.3313,0.3359,0.3426,0.3463,0.358,0.3602,0.3745,0.3755,0.3734,0.3767,0.3634,0.3628,0.3549,0.3495,0.3687,0.3685,0.3683,0.3681,0,0.305,0.3088,0.3096,0.3135,0.3146,0.3157,0.3181,0.3192,0.3286,0.3364,0.3403,0.3526,0.3707,0.3783,0.391,0.3894,0.3903,0.4038,0.3925,0.3936,0.3876,0.3831,0.3786,0.3676,0.4181,0.4183,0.4185,0,0.3015,0.3031,0.3075,0.3078,0.3091,0.3108,0.3119,0.3183,0.3222,0.3423,0.3481,0.3696,0.3816,0.4063,0.4106,0.4231,0.4053,0.4176,0.3972,0.3898,0.3871,0.3682,0.3575,0.3921,0.3921,0.392,0.392,0,0.2938,0.2973,0.2982,0.3011,0.3024,0.3016,0.3071,0.3096,0.3227,0.3335,0.351,0.3631,0.3935,0.4002,0.4215,0.4241,0.3973,0.4176,0.4095,0.3683,0.3479,0.338,0.3774,0.3919,0.3919,0.3919,0.3919,0.3919,0.2858,0.2854,0.2894,0.2901,0.2915,0.2922,0.2894,0.2991,0.306,0.3224,0.3434,0.3593,0.3839,0.4097,0.4125,0.4103,0.4018,0.3954,0.3927,0.3759,0.3555,0.3996,0.4158,0.4159,0.416,0.4162,0.4163,0,0.2751,0.2767,0.277,0.2783,0.2751,0.2802,0.2838,0.281,0.2875,0.3107,0.3251,0.3488,0.3654,0.382,0.3939,0.3843,0.3622,0.3753,0.3415,0.3334,0.3745,0.3633,0.3688,0.3688,0.3688,0.3688,0.3688,0.3688,0.2697,0.2677,0.2689,0.2615,0.2609,0.2539,0.2529,0.2544,0.2656,0.2794,0.2928,0.3112,0.3451,0.3738,0.3722,0.3635,0.3329,0.3237,0.3205,0.3468,0.3481,0.3493,0.3372,0.3372,0.3371,0.2618,0.2613,0.2609]},{"header":{"parameterUnit":"m.s-1","parameterCategory":2,"la1":30.2991,"la2":30.254,"lo1":-89.0895,"lo2":-89.0444,"dy":0.0017,"dx":0.0017,"nx":28,"ny":28,"refTime":"2025-03-17T09:00:00:Z","depth":"0","parameterNumber":3,"parameterNumberName":"V-component_of_CURRENTS"},"data":[0,0,0,0,0,0,0,0,0,0,0,0,0,0,0,0,0,0,0,0,0,0,0,0,0,0,0,0,0,0,0,0,0,0,0,0,0,0,0,0,0,0,0,0,0,0,0,0,0,0,0,0,0,0,0,0,0,0,-0.1249,-0.1249,0,-0.1183,-0.1182,-0.1181,-0.1237,-0.1239,-0.1242,-0.1245,-0.1319,-0.1319,-0.1318,0,0,0,0,0,0,0,0,0,0,0,0,0,-0.1398,-0.1395,-0.1249,-0.1249,-0.1248,-0.1183,-0.1182,-0.1181,-0.1236,-0.124,-0.1243,-0.1246,-0.1319,-0.1319,-0.1318,0,0,0,0,0,0,0,0,0,0,0,0,0,-0.1329,-0.1394,-0.1249,-0.1271,-0.1272,-0.1184,-0.1182,-0.1181,-0.1236,-0.124,-0.1244,-0.1247,-0.132,-0.1319,-0.1318,-0.1235,0,0,-0.1316,-0.1316,0,0,0,0,0,0,0,0,-0.1333,-0.1324,-0.1268,-0.1269,-0.1271,-0.1225,-0.1262,-0.1207,-0.1235,-0.1246,-0.1245,-0.1249,-0.13,-0.1301,-0.1273,-0.1239,-0.1242,-0.1316,-0.1316,-0.1315,-0.1315,0,0,0,0,0,0,0,-0.1338,-0.1327,-0.122,-0.1267,-0.1269,-0.1275,-0.1269,-0.1251,-0.1252,-0.1245,-0.125,-0.1247,-0.1302,-0.1274,-0.1276,-0.1243,-0.1316,-0.1316,-0.1315,-0.1315,-0.1224,-0.1222,0,0,0,0,0,0,-0.1349,-0.133,-0.1222,-0.1218,-0.1316,-0.1269,-0.1263,-0.1233,-0.1249,-0.1255,-0.1243,-0.125,-0.1273,-0.1277,-0.1279,-0.1237,-0.1315,-0.1315,-0.1314,-0.1226,-0.1224,-0.1221,0,0,0,0,0,0,-0.1352,-0.1338,-0.1225,-0.1278,-0.1265,-0.1263,-0.1229,-0.123,-0.1208,-0.1247,-0.1256,-0.1223,-0.1276,-0.128,-0.1251,-0.124,-0.1315,-0.1314,-0.1228,-0.1225,-0.1223,-0.1119,0,0,0,0,0,0,-0.1356,-0.1339,-0.131,-0.1277,-0.1262,-0.1155,-0.1225,-0.1226,-0.1201,-0.1209,-0.1231,-0.1242,-0.128,-0.1252,-0.1251,-0.124,-0.1313,-0.1231,-0.1227,-0.1224,-0.1125,-0.1113,-0.1102,0,0,0,0,0,-0.1361,-0.1289,-0.1308,-0.1295,-0.1224,-0.1152,-0.1142,-0.1155,-0.1196,-0.1156,-0.1181,-0.1242,-0.123,-0.1247,-0.1247,-0.1237,-0.1233,-0.1228,-0.1224,-0.113,-0.1115,-0.1102,0,0,0,0,0,0,-0.1298,-0.1287,-0.1308,-0.1226,-0.1194,-0.1163,-0.1118,-0.1137,-0.1117,-0.1134,-0.1189,-0.1198,-0.1179,-0.1203,-0.1222,-0.12,-0.125,-0.1245,-0.1179,-0.1166,-0.1155,-0.1141,-0.1313,0,0,0,0,0,-0.128,-0.124,-0.1225,-0.1149,-0.1136,-0.1128,-0.1101,-0.1109,-0.1095,-0.109,-0.1111,-0.1138,-0.115,-0.1155,-0.1161,-0.1121,-0.1142,-0.1122,-0.111,-0.1101,-0.1088,-0.1118,-0.1108,-0.1207,-0.1207,-0.1207,0,0,-0.1228,-0.1218,-0.1189,-0.1138,-0.1114,-0.1056,-0.1118,-0.1059,-0.1023,-0.11,-0.1049,-0.1088,-0.1129,-0.1103,-0.1098,-0.1126,-0.1071,-0.1095,-0.1087,-0.1079,-0.1112,-0.1103,-0.1095,-0.1204,-0.1204,-0.1205,0,0,-0.1098,-0.1099,-0.1031,-0.101,-0.0981,-0.0978,-0.0962,-0.0935,-0.0941,-0.0891,-0.0961,-0.0981,-0.0971,-0.101,-0.103,-0.095,-0.1009,-0.0964,-0.0897,-0.0925,-0.0918,-0.0912,-0.0875,-0.0867,-0.0961,-0.0961,-0.0961,0,-0.1035,-0.0961,-0.0989,-0.0926,-0.0902,-0.0942,-0.0865,-0.0855,-0.0825,-0.0826,-0.0866,-0.0887,-0.093,-0.093,-0.0918,-0.0927,-0.0931,-0.0948,-0.0912,-0.0906,-0.0902,-0.0867,-0.0859,-0.0956,-0.0956,-0.0957,-0.0957,0,-0.0871,-0.0824,-0.0771,-0.0729,-0.07,-0.0632,-0.0651,-0.0628,-0.066,-0.0673,-0.0677,-0.0734,-0.0758,-0.0785,-0.0828,-0.0823,-0.0828,-0.0894,-0.0949,-0.0886,-0.0852,-0.0846,-0.0948,-0.095,-0.0951,-0.0953,0,0,-0.0691,-0.0667,-0.0646,-0.0626,-0.0605,-0.0557,-0.0514,-0.0487,-0.0462,-0.0492,-0.0461,-0.0528,-0.0593,-0.0619,-0.0694,-0.0731,-0.07,-0.0792,-0.0797,-0.0758,-0.0709,-0.0651,-0.0639,-0.0769,-0.0769,-0.0768,-0.068,0,-0.0549,-0.0431,-0.0454,-0.0339,-0.0289,-0.0341,-0.0295,-0.0294,-0.0314,-0.0291,-0.0399,-0.0401,-0.0521,-0.0541,-0.0594,-0.0671,-0.0687,-0.0714,-0.0774,-0.0774,-0.0734,-0.0632,-0.0641,-0.056,-0.0674,-0.0674,-0.0673,0,-0.038,-0.0338,-0.0217,-0.0196,-0.0175,-0.0116,-0.0087,-0.0049,-0.0066,-0.0091,-0.0141,-0.0222,-0.0275,-0.0395,-0.0494,-0.0505,-0.059,-0.0662,-0.0662,-0.0643,-0.0705,-0.0651,-0.0545,-0.0751,-0.0664,-0.0665,-0.0666,0,-0.0262,-0.0173,-0.0088,-0.0071,-0.0039,-0.0002,0.0021,0.0019,0.006,0.0039,0.0073,-0.0043,-0.0058,-0.0206,-0.0354,-0.0426,-0.0438,-0.0561,-0.0579,-0.0573,-0.0609,-0.0608,-0.0717,-0.0625,-0.0625,-0.0626,-0.0626,0,-0.0119,-0.0044,-0.0027,0.0023,0.0129,0.0107,0.0207,0.0208,0.0238,0.033,0.0187,0.0238,-0.0018,-0.0068,-0.0251,-0.0344,-0.0354,-0.0523,-0.0545,-0.0565,-0.0561,-0.0767,-0.0895,-0.0622,-0.0623,-0.0624,-0.0624,0,0.0005,0.0017,0.0115,0.0161,0.0188,0.0265,0.0338,0.0407,0.0421,0.0548,0.0552,0.0479,0.0418,0.0209,0.0016,-0.0162,-0.0398,-0.034,-0.0303,-0.0322,-0.0567,-0.0687,-0.0771,-0.086,-0.0352,-0.035,-0.0348,0,0.008,0.0142,0.0223,0.0288,0.032,0.0412,0.0482,0.0502,0.0596,0.0714,0.0808,0.0778,0.0796,0.0576,0.0239,-0.0006,-0.0262,-0.0194,-0.0364,-0.0533,-0.0686,-0.0781,-0.0859,-0.0351,-0.035,-0.0349,-0.0348,0,0.0216,0.0238,0.0306,0.0435,0.0526,0.0626,0.0742,0.0842,0.0915,0.1034,0.1195,0.122,0.1025,0.0766,0.0426,0.02,-0.0339,-0.0175,-0.0395,-0.0704,-0.0773,-0.0883,-0.0415,-0.0336,-0.0337,-0.0338,-0.0339,-0.0339,0.0318,0.0387,0.0471,0.0596,0.0698,0.0847,0.0957,0.1093,0.1271,0.1487,0.1492,0.1591,0.1188,0.0713,0.0407,-0.0196,-0.0233,-0.044,-0.0564,-0.0637,-0.0754,-0.0204,-0.0134,-0.0134,-0.0134,-0.0134,-0.0134,0,0.0446,0.0514,0.0629,0.0775,0.0902,0.0932,0.1135,0.126,0.1494,0.1693,0.1833,0.1707,0.121,0.0668,-0.012,-0.0535,-0.0751,-0.0782,-0.0986,-0.1047,-0.0597,-0.0633,-0.0614,-0.0614,-0.0614,-0.0614,-0.0613,-0.0613,0.0526,0.0649,0.0695,0.0925,0.1029,0.1216,0.1338,0.1537,0.1709,0.1953,0.2032,0.2058,0.163,0.0207,-0.0751,-0.0976,-0.1326,-0.136,-0.1511,-0.1294,-0.1275,-0.1257,-0.1323,-0.1449,-0.145,-0.1941,-0.1947,-0.195]}],[{"header":{"parameterUnit":"m.s-1","parameterCategory":2,"la1":30.2991,"la2":30.254,"lo1":-89.0895,"lo2":-89.0444,"dy":0.0017,"dx":0.0017,"nx":28,"ny":28,"refTime":"2025-03-17T09:00:00:Z","depth":"2","parameterNumber":2,"parameterNumberName":"U-component_of_CURRENTS"},"data":[0,0,0,0,0,0,0,0,0,0,0,0,0,0,0,0,0,0,0,0,0,0,0,0,0,0,0,0,0,0,0,0,0,0,0,0,0,0,0,0,0,0,0,0,0,0,0,0,0,0,0,0,0,0,0,0,0,0,0.2323,0.232,0,0.222,0.222,0.222,0.2298,0.2299,0.2301,0.2303,0.2426,0.2427,0.2429,0,0,0,0,0,0,0,0,0,0,0,0,0,0.2289,0.2293,0.2323,0.232,0.2317,0.222,0.222,0.222,0.2297,0.2299,0.2302,0.2304,0.2425,0.2427,0.2429,0,0,0,0,0,0,0,0,0,0,0,0,0,0.2274,0.2294,0.2323,0.2331,0.233,0.222,0.222,0.2221,0.2297,0.23,0.2302,0.2305,0.2425,0.2427,0.2429,0.239,0,0,0.2437,0.2438,0,0,0,0,0,0,0,0,0.2275,0.2277,0.2333,0.233,0.2328,0.2259,0.2252,0.2282,0.2296,0.2327,0.2303,0.2306,0.2378,0.2384,0.238,0.2396,0.2401,0.2437,0.2438,0.2439,0.244,0,0,0,0,0,0,0,0.2276,0.228,0.23,0.2329,0.2326,0.2236,0.2242,0.2257,0.2356,0.2325,0.2326,0.2286,0.2381,0.2377,0.2384,0.2403,0.2437,0.2439,0.244,0.2441,0.2532,0.2533,0,0,0,0,0,0,0.2268,0.2283,0.2303,0.2295,0.2288,0.2235,0.2242,0.2293,0.2351,0.2356,0.2284,0.229,0.2372,0.2381,0.2389,0.25,0.2439,0.2442,0.2443,0.2531,0.2532,0.2533,0,0,0,0,0,0,0.2269,0.2274,0.2306,0.2266,0.2262,0.2233,0.2289,0.2289,0.2306,0.2314,0.2328,0.2302,0.2375,0.2385,0.2449,0.25,0.2443,0.2445,0.253,0.2532,0.2533,0.2624,0,0,0,0,0,0,0.2271,0.2278,0.2302,0.227,0.2264,0.2275,0.2284,0.2284,0.2267,0.2276,0.2333,0.2346,0.2377,0.2446,0.2452,0.2502,0.2447,0.2529,0.2531,0.2532,0.262,0.2629,0.2636,0,0,0,0,0,0.2271,0.2262,0.2307,0.2305,0.2306,0.2273,0.2266,0.2259,0.2266,0.2286,0.2334,0.2346,0.2462,0.2449,0.2455,0.2508,0.2528,0.253,0.2532,0.2616,0.2627,0.2636,0,0,0,0,0,0,0.2233,0.2267,0.2315,0.2318,0.2321,0.2281,0.2248,0.226,0.2304,0.2322,0.2358,0.2374,0.246,0.245,0.2435,0.2535,0.2495,0.2499,0.2557,0.2567,0.2575,0.2569,0.2449,0,0,0,0,0,0.2243,0.229,0.2289,0.2306,0.2292,0.2284,0.2261,0.2279,0.2294,0.2316,0.2359,0.2403,0.2463,0.249,0.2537,0.2572,0.2578,0.2607,0.2615,0.2622,0.2619,0.2659,0.2671,0.2541,0.2541,0.2541,0,0,0.2239,0.2253,0.2285,0.2304,0.2296,0.2294,0.2284,0.2264,0.2303,0.2321,0.2393,0.2441,0.2481,0.2557,0.2589,0.2561,0.2669,0.2625,0.2631,0.2624,0.2663,0.2675,0.2687,0.2542,0.2542,0.2542,0,0,0.2225,0.2265,0.2296,0.2295,0.2285,0.2284,0.2286,0.2286,0.233,0.2388,0.2434,0.2503,0.2562,0.2619,0.2648,0.2709,0.2721,0.2726,0.2755,0.2795,0.2806,0.2816,0.2873,0.2887,0.2716,0.2717,0.2717,0,0.2209,0.2264,0.2287,0.2289,0.2278,0.2289,0.23,0.233,0.2372,0.2414,0.2429,0.2552,0.2593,0.269,0.273,0.2733,0.2759,0.2724,0.2808,0.2817,0.2826,0.2881,0.2895,0.2721,0.2721,0.272,0.272,0,0.2255,0.2253,0.2239,0.2299,0.2305,0.2293,0.2336,0.2384,0.2427,0.2464,0.2579,0.264,0.2707,0.2742,0.2764,0.2854,0.2858,0.2829,0.2788,0.2845,0.2899,0.2913,0.2728,0.2726,0.2725,0.2724,0,0,0.2277,0.2283,0.227,0.2292,0.2304,0.2322,0.2383,0.2445,0.2503,0.2571,0.2651,0.2762,0.2786,0.2819,0.2861,0.29,0.3007,0.2895,0.2895,0.2961,0.312,0.3047,0.3054,0.3,0.3002,0.3004,0.3146,0,0.2288,0.2331,0.2315,0.233,0.2345,0.2362,0.2419,0.2495,0.2566,0.2649,0.2721,0.281,0.2818,0.2872,0.2915,0.2999,0.3041,0.2972,0.3045,0.3048,0.2983,0.3066,0.2848,0.2948,0.3159,0.3161,0.3163,0,0.2321,0.2343,0.239,0.2382,0.2387,0.2405,0.2514,0.2559,0.2662,0.2725,0.2806,0.2857,0.2965,0.2939,0.3084,0.3046,0.3086,0.3127,0.3132,0.3034,0.2997,0.2917,0.2965,0.3185,0.3183,0.3181,0.318,0,0.2378,0.2361,0.242,0.2422,0.2443,0.2472,0.2492,0.2594,0.2653,0.2772,0.2835,0.2941,0.3022,0.3082,0.3163,0.3142,0.3299,0.327,0.3238,0.3234,0.3043,0.3018,0.334,0.334,0.3339,0.3339,0.3339,0,0.2372,0.2381,0.2452,0.2461,0.2515,0.2529,0.2578,0.2635,0.2721,0.2786,0.2867,0.2955,0.3062,0.3154,0.3198,0.327,0.3324,0.3265,0.3266,0.3071,0.3048,0.3229,0.3214,0.3344,0.3343,0.3342,0.3341,0,0.236,0.2415,0.2444,0.2498,0.2523,0.2564,0.2586,0.263,0.2724,0.2819,0.2859,0.3009,0.3132,0.3212,0.3337,0.3323,0.3386,0.338,0.3154,0.3125,0.3294,0.3282,0.3389,0.3388,0.3387,0.3386,0.3385,0,0.2361,0.2392,0.2475,0.2509,0.2502,0.2553,0.2579,0.264,0.2689,0.2842,0.2897,0.3048,0.3125,0.3283,0.3303,0.3364,0.339,0.3167,0.3066,0.3309,0.3301,0.329,0.3281,0.2876,0.2871,0.2867,0.2864,0,0.2309,0.2352,0.2377,0.2471,0.2506,0.2542,0.2584,0.2615,0.2692,0.2771,0.2879,0.2949,0.3108,0.3075,0.3148,0.3146,0.314,0.3086,0.3411,0.288,0.2831,0.282,0.2827,0.2828,0.2831,0.2834,0.2836,0.2837,0.2263,0.2271,0.2335,0.2387,0.2455,0.2505,0.2452,0.2516,0.2552,0.2593,0.2756,0.2766,0.2855,0.2855,0.281,0.279,0.2998,0.2871,0.2881,0.2896,0.2794,0.2743,0.2707,0.271,0.2712,0.2714,0.2716,0,0.2184,0.221,0.2253,0.2296,0.23,0.2407,0.2428,0.2334,0.2289,0.2424,0.246,0.2325,0.2356,0.2433,0.2369,0.2405,0.2361,0.2299,0.2218,0.2258,0.2293,0.2156,0.1902,0.1899,0.1896,0.1893,0,0,0.2151,0.2129,0.213,0.2113,0.2164,0.2104,0.2078,0.2011,0.2029,0.1976,0.1987,0.2196,0.2353,0.2062,0.2076,0.1967,0.2076,0.1898,0.2565,0.2509,0.2538,0.2658,0.2499,0,0,0,0,0]},{"header":{"parameterUnit":"m.s-1","parameterCategory":2,"la1":30.2991,"la2":30.254,"lo1":-89.0895,"lo2":-89.0444,"dy":0.0017,"dx":0.0017,"nx":28,"ny":28,"refTime":"2025-03-17T09:00:00:Z","depth":"2","parameterNumber":3,"parameterNumberName":"V-component_of_CURRENTS"},"data":[0,0,0,0,0,0,0,0,0,0,0,0,0,0,0,0,0,0,0,0,0,0,0,0,0,0,0,0,0,0,0,0,0,0,0,0,0,0,0,0,0,0,0,0,0,0,0,0,0,0,0,0,0,0,0,0,0,0,0.0388,0.0389,0,0.0353,0.0352,0.035,0.024,0.0238,0.0237,0.0236,0.0044,0.004,0.0036,0,0,0,0,0,0,0,0,0,0,0,0,0,0.0417,0.0415,0.0388,0.0389,0.0389,0.0354,0.0352,0.035,0.024,0.0238,0.0237,0.0236,0.0045,0.004,0.0035,0,0,0,0,0,0,0,0,0,0,0,0,0,0.0382,0.0415,0.0388,0.0341,0.0337,0.0354,0.0352,0.0349,0.024,0.0238,0.0237,0.0235,0.0046,0.0041,0.0035,0.0032,0,0,0.0016,0.0013,0,0,0,0,0,0,0,0,0.0384,0.0379,0.0347,0.0344,0.034,0.0311,0.0292,0.024,0.024,0.0262,0.0236,0.0234,0.0129,0.0116,0.0095,0.0023,0.0015,0.0016,0.0012,0.0009,0.0007,0,0,0,0,0,0,0,0.0386,0.038,0.036,0.0348,0.0344,0.0343,0.0334,0.0282,0.0192,0.026,0.0255,0.0275,0.0124,0.0102,0.009,0.0012,0.0016,0.001,0.0007,0.0004,-0.0158,-0.0159,0,0,0,0,0,0,0.0418,0.0382,0.0361,0.036,0.0374,0.0344,0.0334,0.0311,0.0195,0.0182,0.0276,0.027,0.0113,0.0097,0.0083,-0.0032,0.0009,0.0004,0.0,-0.0158,-0.0158,-0.0159,0,0,0,0,0,0,0.0418,0.0414,0.0363,0.0385,0.0379,0.0347,0.0322,0.0311,0.0275,0.0213,0.0192,0.0251,0.0111,0.0091,0.0017,-0.0036,0.0001,-0.0005,-0.0157,-0.0158,-0.0159,-0.0193,0,0,0,0,0,0,0.0418,0.0413,0.0406,0.0385,0.038,0.0342,0.0325,0.0313,0.0298,0.0288,0.0185,0.0166,0.0108,0.0026,0.0011,-0.0044,-0.0009,-0.0156,-0.0157,-0.0158,-0.0191,-0.0195,-0.0199,0,0,0,0,0,0.0418,0.044,0.0404,0.0403,0.0369,0.0342,0.0336,0.03,0.0299,0.0263,0.0208,0.0168,0.0007,0.0021,0.0003,-0.0055,-0.0155,-0.0157,-0.0158,-0.019,-0.0195,-0.0199,0,0,0,0,0,0,0.0454,0.0431,0.0391,0.0401,0.0354,0.0328,0.0334,0.0304,0.0237,0.023,0.0161,0.0137,0.0041,0.002,0.0038,-0.01,-0.0081,-0.0086,-0.0099,-0.0104,-0.0108,-0.0068,-0.0014,0,0,0,0,0,0.046,0.0449,0.0414,0.0408,0.0403,0.0361,0.0354,0.0313,0.0269,0.0237,0.0169,0.0104,0.0027,-0.0015,-0.0087,-0.0147,-0.0138,-0.0193,-0.0196,-0.02,-0.0177,-0.0206,-0.021,-0.0164,-0.0164,-0.0164,0,0,0.0462,0.0461,0.0445,0.0413,0.0389,0.0373,0.0346,0.0327,0.029,0.0229,0.0159,0.008,0.0008,-0.0084,-0.0126,-0.0112,-0.0207,-0.0201,-0.0204,-0.0179,-0.0208,-0.0213,-0.0216,-0.0165,-0.0165,-0.0165,0,0,0.0482,0.0469,0.046,0.0436,0.041,0.0388,0.0382,0.0329,0.0279,0.021,0.0145,0.0058,-0.0044,-0.0118,-0.0162,-0.0212,-0.0233,-0.0251,-0.024,-0.027,-0.0274,-0.0277,-0.0268,-0.027,-0.0246,-0.0246,-0.0246,0,0.0487,0.0474,0.0451,0.0449,0.0446,0.0398,0.0382,0.0336,0.025,0.0224,0.0183,0.0031,-0.0054,-0.0147,-0.0194,-0.0225,-0.0228,-0.0225,-0.0275,-0.0278,-0.0281,-0.027,-0.0272,-0.0248,-0.0248,-0.0248,-0.0247,0,0.0485,0.0483,0.0496,0.0464,0.0442,0.0433,0.0379,0.033,0.0283,0.024,0.013,0.001,-0.0067,-0.0138,-0.0195,-0.0273,-0.0265,-0.0285,-0.0263,-0.0287,-0.0275,-0.0276,-0.0251,-0.025,-0.025,-0.0249,0,0,0.0485,0.0487,0.0487,0.0482,0.0455,0.0438,0.0395,0.0345,0.034,0.022,0.0195,0.0011,-0.0036,-0.0087,-0.0186,-0.0243,-0.03,-0.0281,-0.0282,-0.0268,-0.0342,-0.0361,-0.0364,-0.034,-0.0341,-0.0342,-0.0324,0,0.0485,0.048,0.0486,0.0481,0.0477,0.0448,0.0424,0.037,0.0319,0.0284,0.0164,0.0097,-0.0019,-0.0076,-0.0154,-0.0263,-0.0306,-0.03,-0.032,-0.0319,-0.0333,-0.0368,-0.0344,-0.0329,-0.0325,-0.0325,-0.0325,0,0.0484,0.0484,0.047,0.0494,0.0495,0.0493,0.0468,0.0441,0.0396,0.0355,0.028,0.0206,0.0087,0.0002,-0.0159,-0.0154,-0.0244,-0.0323,-0.0324,-0.0324,-0.0342,-0.0305,-0.0332,-0.0327,-0.0327,-0.0327,-0.0327,0,0.0483,0.0493,0.0484,0.0484,0.0488,0.0489,0.0496,0.0462,0.0469,0.0416,0.0422,0.0288,0.0232,0.0088,-0.0095,-0.0127,-0.0239,-0.0287,-0.0373,-0.0373,-0.0343,-0.034,-0.0371,-0.0371,-0.0371,-0.0371,-0.0371,0,0.0512,0.0515,0.0489,0.0497,0.0521,0.0507,0.0548,0.0535,0.0543,0.0587,0.0471,0.046,0.0245,0.0148,-0.0028,-0.0195,-0.0176,-0.0363,-0.0378,-0.0355,-0.0353,-0.0343,-0.034,-0.0371,-0.0371,-0.0371,-0.0371,0,0.0541,0.0514,0.053,0.0527,0.0533,0.0554,0.0625,0.0661,0.0651,0.0702,0.0695,0.0608,0.0473,0.0274,0.0064,-0.0088,-0.0257,-0.0316,-0.0258,-0.027,-0.038,-0.0379,-0.04,-0.0401,-0.0401,-0.0402,-0.0402,0,0.0552,0.0554,0.0561,0.0583,0.0603,0.0636,0.068,0.0706,0.0768,0.079,0.0835,0.073,0.0659,0.0368,0.0082,-0.0175,-0.0229,-0.031,-0.0388,-0.0374,-0.0387,-0.0385,-0.0383,-0.035,-0.035,-0.035,-0.035,0,0.0597,0.0598,0.0619,0.0659,0.0707,0.0774,0.085,0.0919,0.0963,0.0991,0.1028,0.0972,0.0699,0.0429,0.0083,-0.01,-0.0276,-0.0318,-0.031,-0.0359,-0.033,-0.0341,-0.0341,-0.0349,-0.0349,-0.0349,-0.0349,-0.0349,0.0633,0.067,0.0697,0.0754,0.0817,0.0923,0.1005,0.1079,0.1176,0.124,0.1179,0.11,0.0797,0.0344,0.004,-0.0268,-0.0276,-0.0389,-0.0388,-0.0387,-0.0397,-0.0373,-0.0399,-0.0399,-0.04,-0.04,-0.04,0,0.066,0.0716,0.0785,0.0872,0.098,0.099,0.1127,0.12,0.1311,0.1336,0.1326,0.1043,0.0735,0.0404,-0.0059,-0.0348,-0.0373,-0.0425,-0.0398,-0.0396,-0.0395,-0.0405,-0.0409,-0.041,-0.0411,-0.0411,0,0,0.0673,0.0752,0.0805,0.099,0.1071,0.1211,0.1296,0.1372,0.142,0.1426,0.1375,0.1257,0.0845,0.0513,0.0118,-0.0139,-0.0196,-0.0187,-0.0151,-0.007,-0.0065,-0.0348,-0.036,0,0,0,0,0]}],[{"header":{"parameterUnit":"m.s-1","parameterCategory":2,"la1":30.2991,"la2":30.254,"lo1":-89.0895,"lo2":-89.0444,"dy":0.0017,"dx":0.0017,"nx":28,"ny":28,"refTime":"2025-03-17T09:00:00:Z","depth":"4","parameterNumber":2,"parameterNumberName":"U-component_of_CURRENTS"},"data":[0,0,0,0,0,0,0,0,0,0,0,0,0,0,0,0,0,0,0,0,0,0,0,0,0,0,0,0,0,0,0,0,0,0,0,0,0,0,0,0,0,0,0,0,0,0,0,0,0,0,0,0,0,0,0,0,0,0,0.1065,0.1067,0,0.1191,0.1192,0.1193,0.1247,0.1247,0.1247,0.1248,0.1341,0.1343,0.1346,0,0,0,0,0,0,0,0,0,0,0,0,0,0.0921,0.0922,0.1065,0.1067,0.1069,0.1191,0.1192,0.1193,0.1247,0.1247,0.1247,0.1248,0.134,0.1343,0.1346,0,0,0,0,0,0,0,0,0,0,0,0,0,0.1004,0.0923,0.1065,0.1114,0.112,0.119,0.1192,0.1194,0.1247,0.1247,0.1247,0.1248,0.1339,0.1343,0.1346,0.1361,0,0,0.1357,0.1358,0,0,0,0,0,0,0,0,0.0999,0.1009,0.1105,0.1111,0.1118,0.1207,0.1176,0.125,0.1247,0.1194,0.1248,0.1248,0.1296,0.1303,0.132,0.1366,0.137,0.1357,0.1359,0.1361,0.1362,0,0,0,0,0,0,0,0.0993,0.1004,0.111,0.1107,0.1115,0.1147,0.1158,0.119,0.1238,0.1199,0.1204,0.1225,0.1299,0.1317,0.1323,0.1371,0.1357,0.136,0.1362,0.1363,0.1503,0.1504,0,0,0,0,0,0,0.0984,0.0998,0.1107,0.1115,0.1063,0.1149,0.1162,0.1175,0.1238,0.125,0.1225,0.1227,0.1311,0.1319,0.1326,0.1408,0.1361,0.1364,0.1366,0.1501,0.1503,0.1505,0,0,0,0,0,0,0.098,0.0992,0.1102,0.1063,0.108,0.1151,0.1166,0.1177,0.1226,0.1259,0.1269,0.1265,0.1311,0.1321,0.138,0.1409,0.1365,0.1368,0.1499,0.1502,0.1504,0.1533,0,0,0,0,0,0,0.0976,0.099,0.101,0.1062,0.1082,0.1157,0.1166,0.1179,0.1238,0.1243,0.1297,0.1304,0.1312,0.1375,0.1383,0.1413,0.1371,0.1497,0.15,0.1503,0.153,0.1536,0.1541,0,0,0,0,0,0.097,0.0991,0.101,0.1024,0.1102,0.1159,0.1172,0.122,0.124,0.1264,0.1304,0.1304,0.14,0.1379,0.1389,0.142,0.1496,0.15,0.1503,0.1527,0.1535,0.1541,0,0,0,0,0,0,0.0941,0.1001,0.1022,0.1062,0.1114,0.117,0.121,0.1239,0.129,0.1304,0.1327,0.1338,0.1399,0.141,0.1386,0.147,0.1448,0.1453,0.1462,0.147,0.1475,0.1475,0.1374,0,0,0,0,0,0.0944,0.0972,0.1035,0.1067,0.1101,0.1161,0.1197,0.1229,0.1278,0.1303,0.1339,0.1379,0.1418,0.1444,0.1476,0.1525,0.1542,0.1552,0.1558,0.1562,0.157,0.1619,0.163,0.1517,0.1517,0.1517,0,0,0.094,0.0979,0.0995,0.1064,0.1113,0.1164,0.1183,0.1247,0.1287,0.1304,0.1374,0.1404,0.1436,0.1489,0.1517,0.1505,0.1605,0.1567,0.1571,0.1576,0.1624,0.1635,0.1645,0.1519,0.1519,0.1519,0,0,0.0946,0.0988,0.102,0.1067,0.1148,0.1184,0.1209,0.1281,0.1318,0.1385,0.1405,0.1455,0.1518,0.1542,0.1563,0.1622,0.1633,0.1637,0.1667,0.1715,0.1724,0.1733,0.177,0.1782,0.1639,0.1639,0.1639,0,0.0947,0.099,0.1038,0.1088,0.1135,0.1196,0.1247,0.1291,0.1369,0.1405,0.1413,0.1522,0.1542,0.1608,0.1624,0.1635,0.1663,0.1635,0.1721,0.173,0.1738,0.1775,0.1787,0.1641,0.1641,0.1641,0.164,0,0.0967,0.1023,0.1052,0.1128,0.1181,0.1235,0.1305,0.1358,0.1411,0.1454,0.1542,0.1578,0.1643,0.1655,0.1658,0.173,0.1732,0.1721,0.1699,0.1751,0.1787,0.1799,0.1644,0.1643,0.1642,0.1642,0,0,0.0925,0.1042,0.1056,0.1107,0.121,0.1253,0.1329,0.1413,0.1476,0.154,0.1618,0.1676,0.1707,0.1732,0.1748,0.1783,0.1856,0.1779,0.1781,0.1809,0.1967,0.1867,0.1871,0.1865,0.1867,0.1869,0.1969,0,0.0938,0.1019,0.108,0.117,0.1228,0.1309,0.1376,0.1456,0.1532,0.1618,0.1668,0.175,0.1734,0.1781,0.1812,0.1854,0.1891,0.183,0.192,0.1922,0.182,0.1882,0.1876,0.1978,0.1981,0.1983,0.1984,0,0.0939,0.1001,0.108,0.1209,0.1244,0.1302,0.1429,0.1504,0.1625,0.1689,0.1774,0.1822,0.1899,0.1873,0.1969,0.1936,0.1957,0.1974,0.1978,0.1883,0.1845,0.1917,0.2007,0.2005,0.2003,0.2002,0.2,0,0.0875,0.1005,0.1063,0.1105,0.1249,0.1307,0.1395,0.1525,0.1609,0.175,0.1826,0.1914,0.1988,0.2024,0.2068,0.2033,0.2165,0.2118,0.2046,0.2039,0.2085,0.2075,0.2182,0.2181,0.2181,0.2181,0.2181,0,0.0854,0.0912,0.1042,0.1077,0.1173,0.1289,0.1406,0.1507,0.166,0.1766,0.1866,0.195,0.2033,0.2112,0.2116,0.2131,0.2211,0.2066,0.2063,0.2095,0.2085,0.2094,0.2082,0.2185,0.2184,0.2183,0.2182,0,0.0778,0.086,0.0941,0.1089,0.1147,0.1216,0.1416,0.1496,0.166,0.1804,0.1858,0.2012,0.2115,0.2184,0.2265,0.2198,0.2217,0.2201,0.2255,0.2251,0.2042,0.2031,0.2113,0.2111,0.2109,0.2107,0.2105,0,0.0745,0.0771,0.0922,0.0974,0.1048,0.118,0.1272,0.1471,0.1571,0.1822,0.1875,0.2042,0.2124,0.2165,0.223,0.2257,0.2223,0.2215,0.2092,0.2049,0.2039,0.2031,0.2023,0.2102,0.2101,0.21,0.21,0,0.0672,0.0718,0.0772,0.0884,0.0982,0.1101,0.1259,0.1327,0.1561,0.1721,0.186,0.193,0.2049,0.21,0.2159,0.2158,0.2204,0.219,0.2193,0.2077,0.2035,0.2026,0.2021,0.2092,0.2093,0.2094,0.2095,0,0.0596,0.0609,0.0678,0.0776,0.0895,0.0997,0.1098,0.1244,0.1378,0.1669,0.1706,0.1884,0.2035,0.2052,0.2097,0.2109,0.2051,0.1955,0.1968,0.1978,0.1885,0.1809,0.1809,0,0,0,0,0,0.0524,0.0529,0.0582,0.0682,0.0797,0.0886,0.1079,0.1186,0.1419,0.1479,0.1602,0.171,0.1806,0.1887,0.1868,0.2008,0.2037,0.1974,0.1926,0.205,0.2059,0.1961,0,0,0,0,0,0,0.047,0.0497,0.0529,0.059,0.0649,0.0779,0.09,0.1054,0.1117,0.1349,0.1411,0.1586,0.1697,0.179,0.1823,0.1849,0.1782,0.2092,0.2088,0.2045,0.2053,0.206,0.1963,0,0,0,0,0]},{"header":{"parameterUnit":"m.s-1","parameterCategory":2,"la1":30.2991,"la2":30.254,"lo1":-89.0895,"lo2":-89.0444,"dy":0.0017,"dx":0.0017,"nx":28,"ny":28,"refTime":"2025-03-17T09:00:00:Z","depth":"4","parameterNumber":3,"parameterNumberName":"V-component_of_CURRENTS"},"data":[0,0,0,0,0,0,0,0,0,0,0,0,0,0,0,0,0,0,0,0,0,0,0,0,0,0,0,0,0,0,0,0,0,0,0,0,0,0,0,0,0,0,0,0,0,0,0,0,0,0,0,0,0,0,0,0,0,0,0.0459,0.0458,0,0.0408,0.0407,0.0407,0.0398,0.0398,0.0399,0.0399,0.0346,0.0345,0.0343,0,0,0,0,0,0,0,0,0,0,0,0,0,0.0478,0.0478,0.0459,0.0458,0.0457,0.0408,0.0407,0.0407,0.0398,0.0398,0.0399,0.0399,0.0347,0.0345,0.0343,0,0,0,0,0,0,0,0,0,0,0,0,0,0.0454,0.0478,0.0459,0.0446,0.0444,0.0408,0.0407,0.0407,0.0398,0.0398,0.0399,0.0399,0.0347,0.0345,0.0342,0.0319,0,0,0.0335,0.0334,0,0,0,0,0,0,0,0,0.0456,0.0454,0.0448,0.0447,0.0444,0.0408,0.0394,0.0377,0.0398,0.0417,0.0399,0.0399,0.0365,0.0361,0.0353,0.0317,0.0314,0.0335,0.0333,0.0332,0.0331,0,0,0,0,0,0,0,0.0457,0.0456,0.0441,0.0448,0.0445,0.0418,0.0416,0.0391,0.0391,0.0416,0.0414,0.0406,0.0364,0.0356,0.0352,0.0314,0.0335,0.0333,0.0331,0.033,0.026,0.0259,0,0,0,0,0,0,0.0463,0.0458,0.0442,0.0439,0.0449,0.0417,0.0415,0.0421,0.0391,0.0387,0.0405,0.0406,0.036,0.0355,0.035,0.0344,0.0332,0.033,0.0328,0.026,0.026,0.0259,0,0,0,0,0,0,0.0464,0.0463,0.0444,0.0444,0.044,0.0417,0.0423,0.042,0.0419,0.0383,0.0379,0.0409,0.036,0.0354,0.0333,0.0341,0.0329,0.0326,0.026,0.026,0.0259,0.0316,0,0,0,0,0,0,0.0465,0.0464,0.0472,0.0446,0.044,0.043,0.0422,0.0418,0.0411,0.0411,0.0384,0.038,0.036,0.0337,0.0331,0.0337,0.0324,0.0261,0.026,0.0259,0.0315,0.0318,0.032,0,0,0,0,0,0.0466,0.0473,0.0473,0.0471,0.0452,0.043,0.0425,0.041,0.0411,0.0411,0.0393,0.0381,0.0328,0.0335,0.0328,0.0334,0.0261,0.026,0.026,0.0314,0.0317,0.032,0,0,0,0,0,0,0.048,0.0472,0.0472,0.0475,0.0458,0.0428,0.0426,0.0415,0.0401,0.0405,0.0377,0.037,0.0356,0.0331,0.0339,0.0308,0.0292,0.029,0.0336,0.0339,0.0341,0.0343,0.0322,0,0,0,0,0,0.0489,0.0498,0.0477,0.0481,0.0477,0.0455,0.0445,0.0435,0.0415,0.041,0.0389,0.0364,0.0344,0.0332,0.0308,0.029,0.0249,0.0287,0.0289,0.0292,0.0286,0.0237,0.0235,0.0256,0.0256,0.0256,0,0,0.0496,0.049,0.0497,0.0485,0.0475,0.047,0.0451,0.0442,0.0438,0.0405,0.0398,0.0375,0.034,0.0325,0.0315,0.0307,0.0262,0.0291,0.0294,0.0286,0.0236,0.0234,0.0232,0.0256,0.0256,0.0256,0,0,0.0508,0.0512,0.0523,0.0512,0.0496,0.0484,0.0485,0.0461,0.0454,0.0437,0.0416,0.0394,0.0362,0.0338,0.0322,0.032,0.028,0.0316,0.033,0.0283,0.0281,0.0279,0.0219,0.0211,0.0316,0.0316,0.0316,0,0.0515,0.0526,0.0519,0.052,0.0513,0.0495,0.0497,0.0486,0.0456,0.0446,0.0443,0.0388,0.0366,0.0339,0.0343,0.0328,0.0289,0.0328,0.0288,0.0285,0.0282,0.022,0.0211,0.0318,0.0318,0.0318,0.0318,0,0.0531,0.0538,0.0541,0.0545,0.0538,0.0534,0.0518,0.0511,0.0502,0.0482,0.0455,0.0419,0.0383,0.0377,0.0362,0.0331,0.0306,0.0301,0.0285,0.0283,0.0218,0.0207,0.0322,0.0321,0.0321,0.032,0,0,0.0545,0.0553,0.0554,0.0558,0.055,0.0543,0.0545,0.0529,0.0524,0.0497,0.0477,0.0445,0.042,0.0399,0.0374,0.0338,0.0287,0.0316,0.0312,0.0265,0.017,0.0152,0.0138,0.028,0.0278,0.0277,0.0132,0,0.0557,0.0569,0.0569,0.0577,0.0581,0.0569,0.0568,0.0552,0.0536,0.0512,0.0472,0.0447,0.0431,0.0415,0.0376,0.0309,0.0261,0.0326,0.017,0.0165,0.0158,0.0126,0.0273,0.0124,0.0121,0.0119,0.0118,0,0.0566,0.0574,0.0589,0.0591,0.0593,0.0596,0.0588,0.0584,0.0551,0.0535,0.05,0.0466,0.041,0.0401,0.0275,0.0317,0.0245,0.0193,0.0186,0.0141,0.0127,0.0125,0.0097,0.0099,0.01,0.0102,0.0103,0,0.0571,0.0583,0.0598,0.0598,0.0602,0.0605,0.0608,0.0589,0.0587,0.0549,0.0535,0.0462,0.0421,0.033,0.0224,0.0245,0.0077,0.0089,-0.0002,-0.0005,0.0031,0.0035,-0.001,-0.001,-0.0009,-0.0009,-0.0009,0,0.057,0.0578,0.0604,0.0607,0.0622,0.062,0.0625,0.0618,0.0603,0.0599,0.0548,0.0516,0.0403,0.0302,0.0209,0.006,0.0056,-0.0017,-0.0046,0.0057,0.0065,0.0023,0.0028,-0.0015,-0.0013,-0.0012,-0.0011,0,0.0555,0.0576,0.0594,0.0614,0.0624,0.0634,0.0649,0.0649,0.0637,0.0628,0.0619,0.0537,0.0407,0.0278,0.0112,0.0035,-0.0098,-0.015,-0.0051,-0.007,-0.0148,-0.0138,-0.0271,-0.0273,-0.0274,-0.0276,-0.0277,0,0.0541,0.0552,0.06,0.0621,0.0631,0.0649,0.0661,0.0666,0.0673,0.0641,0.0636,0.0518,0.0448,0.0192,0.0057,-0.0152,-0.0166,-0.0247,-0.0178,-0.0161,-0.0176,-0.0163,-0.0151,-0.0279,-0.028,-0.028,-0.028,0,0.0507,0.0538,0.0554,0.0609,0.0637,0.0668,0.0692,0.0699,0.0704,0.0697,0.0643,0.0521,0.0363,0.0186,0.0013,-0.0126,-0.0198,-0.0264,-0.0261,-0.0196,-0.0173,-0.0183,-0.017,-0.0286,-0.0285,-0.0285,-0.0284,0,0.0475,0.0488,0.053,0.0573,0.0627,0.0674,0.0687,0.0694,0.07,0.0686,0.0659,0.0511,0.0427,0.0196,0.004,-0.0106,-0.0127,-0.0157,-0.016,-0.0156,-0.0067,-0.0017,-0.0123,0,0,0,0,0,0.0434,0.0449,0.0489,0.0541,0.0609,0.065,0.07,0.0714,0.0725,0.0698,0.0687,0.0552,0.0323,0.0216,0.0067,0.0001,-0.0167,-0.018,-0.0205,-0.0317,-0.031,-0.0226,0,0,0,0,0,0,0.04,0.0432,0.0465,0.0518,0.0561,0.0628,0.0672,0.0688,0.0675,0.0674,0.0555,0.0512,0.0286,0.0409,0.0062,0.0015,-0.0021,-0.0283,-0.0287,-0.032,-0.0314,-0.0309,-0.0221,0,0,0,0,0]}]]